Time,TemperatureF,DewpointF,PressureIn,WindDirection,WindDirectionDegrees,WindSpeedMPH,WindSpeedGustMPH,Humidity,HourlyPrecipIn,Conditions,Clouds,dailyrainin,SoftwareType,DateUTC
2013-06-20 00:00:00,57.5,45.4,29.93,North,360,0.0,0.0,64,0.00,,,0.00,Wunderground v.1.13,2013-06-20 07:00:00,
2013-06-20 00:10:00,57.2,45.5,29.93,North,360,0.0,0.0,65,0.00,,,0.00,Wunderground v.1.13,2013-06-20 07:10:00,
2013-06-20 00:15:00,57.0,45.3,29.93,North,360,0.0,0.0,65,0.00,,,0.00,Wunderground v.1.13,2013-06-20 07:15:00,
2013-06-20 00:25:00,56.9,45.3,29.93,North,360,0.0,0.0,65,0.00,,,0.00,Wunderground v.1.13,2013-06-20 07:25:00,
2013-06-20 00:30:00,54.7,45.8,29.91,North,-999,0.0,0.0,72,0.00,,,-99.99,WeatherLink 5.7,2013-06-20 07:30:00,
2013-06-20 00:35:00,56.6,45.4,29.92,North,360,0.0,0.0,66,0.00,,,0.00,Wunderground v.1.13,2013-06-20 07:35:00,
2013-06-20 00:45:00,56.2,45.4,29.92,North,360,0.0,0.0,67,0.00,,,0.00,Wunderground v.1.13,2013-06-20 07:45:00,
2013-06-20 00:55:00,55.7,45.7,29.92,North,360,0.0,0.0,69,0.00,,,0.00,Wunderground v.1.13,2013-06-20 07:55:00,
2013-06-20 01:00:00,53.8,45.7,29.91,North,-999,0.0,0.0,74,0.00,,,-99.99,WeatherLink 5.7,2013-06-20 08:00:00,
2013-06-20 01:05:00,55.3,45.7,29.91,North,360,0.0,0.0,70,0.00,,,0.00,Wunderground v.1.13,2013-06-20 08:05:00,
2013-06-20 01:15:00,55.1,45.9,29.91,North,360,0.0,0.0,71,0.00,,,0.00,Wunderground v.1.13,2013-06-20 08:15:00,
2013-06-20 01:25:00,54.8,45.9,29.91,North,360,0.0,0.0,72,0.00,,,0.00,Wunderground v.1.13,2013-06-20 08:25:00,
2013-06-20 01:30:00,54.7,45.8,29.91,North,360,0.0,0.0,72,0.00,,,0.00,Wunderground v.1.13,2013-06-20 08:30:00,
2013-06-20 01:40:00,54.4,45.6,29.91,North,360,0.0,0.0,72,0.00,,,0.00,Wunderground v.1.13,2013-06-20 08:40:00,
2013-06-20 01:45:00,52.8,45.8,29.90,North,0,0.0,1.0,77,0.00,,,-99.99,WeatherLink 5.7,2013-06-20 08:45:00,
2013-06-20 01:50:00,54.1,45.6,29.91,North,360,0.0,0.0,73,0.00,,,0.00,Wunderground v.1.13,2013-06-20 08:50:00,
2013-06-20 02:00:00,53.8,45.7,29.91,North,360,0.0,0.0,74,0.00,,,0.00,Wunderground v.1.13,2013-06-20 09:00:00,
2013-06-20 02:05:00,53.6,45.5,29.91,North,360,0.0,0.0,74,0.00,,,0.00,Wunderground v.1.13,2013-06-20 09:05:00,
2013-06-20 02:10:00,53.5,45.8,29.91,North,360,0.0,0.0,75,0.00,,,0.00,Wunderground v.1.13,2013-06-20 09:10:00,
2013-06-20 02:15:00,52.8,45.8,29.89,North,-999,0.0,0.0,77,0.00,,,-99.99,WeatherLink 5.7,2013-06-20 09:15:00,
2013-06-20 02:20:00,53.2,45.5,29.90,North,360,0.0,0.0,75,0.00,,,0.00,Wunderground v.1.13,2013-06-20 09:20:00,
2013-06-20 02:30:00,52.9,45.5,29.90,North,360,0.0,0.0,76,0.00,,,0.00,Wunderground v.1.13,2013-06-20 09:30:00,
2013-06-20 02:35:00,52.9,45.5,29.90,North,360,0.0,0.0,76,0.00,,,0.00,Wunderground v.1.13,2013-06-20 09:35:00,
2013-06-20 02:40:00,52.8,45.4,29.90,North,360,0.0,0.0,76,0.00,,,0.00,Wunderground v.1.13,2013-06-20 09:40:00,
2013-06-20 02:45:00,52.8,45.8,29.90,North,360,0.0,0.0,77,0.00,,,0.00,Wunderground v.1.13,2013-06-20 09:45:00,
2013-06-20 02:55:00,52.8,45.8,29.90,North,360,0.0,0.0,77,0.00,,,0.00,Wunderground v.1.13,2013-06-20 09:55:00,
2013-06-20 03:00:00,51.6,45.0,29.88,North,-999,0.0,0.0,78,0.00,,,-99.99,WeatherLink 5.7,2013-06-20 10:00:00,
2013-06-20 03:05:00,52.8,45.8,29.89,North,360,0.0,1.0,77,0.00,,,0.00,Wunderground v.1.13,2013-06-20 10:05:00,
2013-06-20 03:10:00,52.8,45.8,29.89,North,360,0.0,1.0,77,0.00,,,0.00,Wunderground v.1.13,2013-06-20 10:10:00,
2013-06-20 03:15:00,51.3,45.0,29.88,North,-999,0.0,0.0,79,0.00,,,-99.99,WeatherLink 5.7,2013-06-20 10:15:00,
2013-06-20 03:20:00,52.6,45.6,29.89,North,360,0.0,1.0,77,0.00,,,0.00,Wunderground v.1.13,2013-06-20 10:20:00,
2013-06-20 03:30:00,52.5,45.5,29.89,North,360,0.0,1.0,77,0.00,,,0.00,Wunderground v.1.13,2013-06-20 10:30:00,
2013-06-20 03:35:00,52.3,45.3,29.89,North,360,0.0,0.0,77,0.00,,,0.00,Wunderground v.1.13,2013-06-20 10:35:00,
2013-06-20 03:45:00,52.0,45.0,29.89,North,360,0.0,0.0,77,0.00,,,0.00,Wunderground v.1.13,2013-06-20 10:45:00,
2013-06-20 03:55:00,51.6,45.0,29.89,North,360,0.0,0.0,78,0.00,,,0.00,Wunderground v.1.13,2013-06-20 10:55:00,
2013-06-20 04:00:00,50.4,44.8,29.88,North,-999,0.0,0.0,81,0.00,,,-99.99,WeatherLink 5.7,2013-06-20 11:00:00,
2013-06-20 04:05:00,51.4,45.1,29.88,North,360,0.0,0.0,79,0.00,,,0.00,Wunderground v.1.13,2013-06-20 11:05:00,
2013-06-20 04:10:00,51.3,45.0,29.88,North,360,0.0,0.0,79,0.00,,,0.00,Wunderground v.1.13,2013-06-20 11:10:00,
2013-06-20 04:15:00,51.3,45.0,29.88,North,360,0.0,0.0,79,0.00,,,0.00,Wunderground v.1.13,2013-06-20 11:15:00,
2013-06-20 04:25:00,51.1,45.1,29.88,North,360,0.0,0.0,80,0.00,,,0.00,Wunderground v.1.13,2013-06-20 11:25:00,
2013-06-20 04:30:00,51.0,45.0,29.88,North,360,0.0,0.0,80,0.00,,,0.00,Wunderground v.1.13,2013-06-20 11:30:00,
2013-06-20 04:40:00,50.8,45.2,29.88,North,360,0.0,0.0,81,0.00,,,0.00,Wunderground v.1.13,2013-06-20 11:40:00,
2013-06-20 04:45:00,49.6,45.0,29.89,North,-999,0.0,0.0,84,0.00,,,-99.99,WeatherLink 5.7,2013-06-20 11:45:00,
2013-06-20 04:50:00,50.7,45.1,29.88,North,360,0.0,0.0,81,0.00,,,0.00,Wunderground v.1.13,2013-06-20 11:50:00,
2013-06-20 05:00:00,50.5,44.9,29.88,North,360,0.0,0.0,81,0.00,,,0.00,Wunderground v.1.13,2013-06-20 12:00:00,
2013-06-20 05:05:00,50.4,44.8,29.88,North,360,0.0,0.0,81,0.00,,,0.00,Wunderground v.1.13,2013-06-20 12:05:00,
2013-06-20 05:15:00,50.1,44.8,29.88,North,360,0.0,0.0,82,0.00,,,0.00,Wunderground v.1.13,2013-06-20 12:15:00,
2013-06-20 05:25:00,49.9,44.9,29.88,North,360,0.0,0.0,83,0.00,,,0.00,Wunderground v.1.13,2013-06-20 12:25:00,
2013-06-20 05:30:00,49.6,45.6,29.90,North,-999,0.0,0.0,86,0.00,,,-99.99,WeatherLink 5.7,2013-06-20 12:30:00,
2013-06-20 05:35:00,49.8,44.8,29.89,North,360,0.0,0.0,83,0.00,,,0.00,Wunderground v.1.13,2013-06-20 12:35:00,
2013-06-20 05:40:00,49.8,45.2,29.89,North,360,0.0,0.0,84,0.00,,,0.00,Wunderground v.1.13,2013-06-20 12:40:00,
2013-06-20 05:45:00,49.9,46.2,29.90,North,-999,0.0,0.0,87,0.00,,,-99.99,WeatherLink 5.7,2013-06-20 12:45:00,
2013-06-20 05:50:00,49.6,45.0,29.89,North,360,0.0,0.0,84,0.00,,,0.00,Wunderground v.1.13,2013-06-20 12:50:00,
2013-06-20 05:55:00,49.6,45.0,29.89,North,360,0.0,0.0,84,0.00,,,0.00,Wunderground v.1.13,2013-06-20 12:55:00,
2013-06-20 06:00:00,49.6,45.0,29.89,North,360,0.0,0.0,84,0.00,,,0.00,Wunderground v.1.13,2013-06-20 13:00:00,
2013-06-20 06:10:00,49.5,44.9,29.89,North,360,0.0,0.0,84,0.00,,,0.00,Wunderground v.1.13,2013-06-20 13:10:00,
2013-06-20 06:15:00,49.5,45.2,29.90,North,360,0.0,0.0,85,0.00,,,0.00,Wunderground v.1.13,2013-06-20 13:15:00,
2013-06-20 06:25:00,49.6,45.6,29.90,North,360,0.0,0.0,86,0.00,,,0.00,Wunderground v.1.13,2013-06-20 13:25:00,
2013-06-20 06:30:00,49.6,45.6,29.90,North,360,0.0,0.0,86,0.00,,,0.00,Wunderground v.1.13,2013-06-20 13:30:00,
2013-06-20 06:40:00,49.8,45.8,29.90,North,360,0.0,0.0,86,0.00,,,0.00,Wunderground v.1.13,2013-06-20 13:40:00,
2013-06-20 06:45:00,49.9,46.2,29.90,North,360,0.0,0.0,87,0.00,,,0.00,Wunderground v.1.13,2013-06-20 13:45:00,
2013-06-20 06:55:00,50.4,46.7,29.90,North,360,0.0,0.0,87,0.00,,,0.00,Wunderground v.1.13,2013-06-20 13:55:00,
2013-06-20 07:00:00,61.8,48.2,29.90,North,0,0.0,1.0,61,0.00,,,-99.99,WeatherLink 5.7,2013-06-20 14:00:00,
2013-06-20 07:05:00,51.4,48.0,29.90,North,360,0.0,0.0,88,0.00,,,0.00,Wunderground v.1.13,2013-06-20 14:05:00,
2013-06-20 07:10:00,52.3,48.9,29.90,North,360,0.0,0.0,88,0.00,,,0.00,Wunderground v.1.13,2013-06-20 14:10:00,
2013-06-20 07:15:00,63.7,48.2,29.90,NNW,337,0.0,3.0,57,0.00,,,-99.99,WeatherLink 5.7,2013-06-20 14:15:00,
2013-06-20 07:20:00,54.5,49.4,29.90,North,360,0.0,0.0,83,0.00,,,0.00,Wunderground v.1.13,2013-06-20 14:20:00,
2013-06-20 07:30:00,56.2,49.8,29.90,North,360,0.0,0.0,79,0.00,,,0.00,Wunderground v.1.13,2013-06-20 14:30:00,
2013-06-20 07:35:00,56.9,49.8,29.90,North,360,0.0,0.0,77,0.00,,,0.00,Wunderground v.1.13,2013-06-20 14:35:00,
2013-06-20 07:45:00,58.3,50.0,29.90,North,360,0.0,0.0,74,0.00,,,0.00,Wunderground v.1.13,2013-06-20 14:45:00,
2013-06-20 07:55:00,60.5,49.1,29.90,North,360,0.0,0.0,66,0.00,,,0.00,Wunderground v.1.13,2013-06-20 14:55:00,
2013-06-20 08:00:00,64.8,46.8,29.89,WNW,292,0.0,3.0,52,0.00,,,-99.99,WeatherLink 5.7,2013-06-20 15:00:00,
2013-06-20 08:05:00,62.7,48.2,29.90,North,360,0.0,1.0,59,0.00,,,0.00,Wunderground v.1.13,2013-06-20 15:05:00,
2013-06-20 08:15:00,63.7,47.7,29.90,NNW,327,0.0,1.0,56,0.00,,,0.00,Wunderground v.1.13,2013-06-20 15:15:00,
2013-06-20 08:20:00,64.3,47.3,29.90,WNW,283,0.0,2.0,54,0.00,,,0.00,Wunderground v.1.13,2013-06-20 15:20:00,
2013-06-20 08:30:00,65.2,47.6,29.90,North,5,0.0,1.0,53,0.00,,,0.00,Wunderground v.1.13,2013-06-20 15:30:00,
2013-06-20 08:40:00,65.0,47.4,29.90,North,5,0.0,3.0,53,0.00,,,0.00,Wunderground v.1.13,2013-06-20 15:40:00,
2013-06-20 08:45:00,64.8,46.8,29.89,North,5,0.0,3.0,52,0.00,,,0.00,Wunderground v.1.13,2013-06-20 15:45:00,
2013-06-20 08:55:00,64.8,46.2,29.89,WNW,300,0.0,3.0,51,0.00,,,0.00,Wunderground v.1.13,2013-06-20 15:55:00,
2013-06-20 09:00:00,67.1,45.6,29.88,WNW,292,0.0,4.0,46,0.00,,,-99.99,WeatherLink 5.7,2013-06-20 16:00:00,
2013-06-20 09:05:00,64.7,46.7,29.89,WNW,300,0.0,3.0,52,0.00,,,0.00,Wunderground v.1.13,2013-06-20 16:05:00,
2013-06-20 09:10:00,64.7,47.2,29.89,WNW,300,0.0,3.0,53,0.00,,,0.00,Wunderground v.1.13,2013-06-20 16:10:00,
2013-06-20 09:15:00,64.7,46.1,29.89,WNW,300,0.0,3.0,51,0.00,,,0.00,Wunderground v.1.13,2013-06-20 16:15:00,
2013-06-20 09:25:00,65.2,48.1,29.89,NW,316,0.0,3.0,54,0.00,,,0.00,Wunderground v.1.13,2013-06-20 16:25:00,
2013-06-20 09:30:00,65.6,46.5,29.89,NW,311,0.0,3.0,50,0.00,,,0.00,Wunderground v.1.13,2013-06-20 16:30:00,
2013-06-20 09:35:00,65.8,46.1,29.89,WNW,293,0.0,4.0,49,0.00,,,0.00,Wunderground v.1.13,2013-06-20 16:35:00,
2013-06-20 09:40:00,66.0,46.3,29.89,WNW,293,0.0,4.0,49,0.00,,,0.00,Wunderground v.1.13,2013-06-20 16:40:00,
2013-06-20 09:45:00,70.4,46.2,29.88,NNW,337,0.0,3.0,42,0.00,,,-99.99,WeatherLink 5.7,2013-06-20 16:45:00,
2013-06-20 09:50:00,66.4,47.2,29.88,NNW,345,0.0,4.0,50,0.00,,,0.00,Wunderground v.1.13,2013-06-20 16:50:00,
2013-06-20 10:00:00,67.1,45.0,29.88,WNW,282,1.0,1.0,45,0.00,,,0.00,Wunderground v.1.13,2013-06-20 17:00:00,
2013-06-20 10:05:00,67.4,44.7,29.88,WNW,286,1.0,1.0,44,0.00,,,0.00,Wunderground v.1.13,2013-06-20 17:05:00,
2013-06-20 10:15:00,68.1,47.1,29.88,WNW,287,0.0,4.0,47,0.00,,,0.00,Wunderground v.1.13,2013-06-20 17:15:00,
2013-06-20 10:25:00,68.9,45.5,29.88,West,277,1.0,4.0,43,0.00,,,0.00,Wunderground v.1.13,2013-06-20 17:25:00,
2013-06-20 10:30:00,69.4,46.5,29.88,NW,317,1.0,1.0,44,0.00,,,0.00,Wunderground v.1.13,2013-06-20 17:30:00,
2013-06-20 10:40:00,69.9,45.1,29.88,NNE,33,0.0,5.0,41,0.00,,,0.00,Wunderground v.1.13,2013-06-20 17:40:00,
2013-06-20 10:45:00,76.5,46.0,29.87,WNW,292,1.0,4.0,34,0.00,,,-99.99,WeatherLink 5.7,2013-06-20 17:45:00,
2013-06-20 10:50:00,70.8,45.9,29.88,NW,310,0.0,5.0,41,0.00,,,0.00,Wunderground v.1.13,2013-06-20 17:50:00,
2013-06-20 11:00:00,71.8,45.5,29.87,NNW,331,1.0,1.0,39,0.00,,,0.00,Wunderground v.1.13,2013-06-20 18:00:00,
2013-06-20 11:10:00,72.8,46.4,29.87,WNW,296,1.0,4.0,39,0.00,,,0.00,Wunderground v.1.13,2013-06-20 18:10:00,
2013-06-20 11:15:00,77.7,47.9,29.86,West,270,1.0,5.0,35,0.00,,,-99.99,WeatherLink 5.7,2013-06-20 18:15:00,
2013-06-20 11:20:00,74.2,46.2,29.87,West,280,1.0,4.0,37,0.00,,,0.00,Wunderground v.1.13,2013-06-20 18:20:00,
2013-06-20 11:25:00,74.7,46.0,29.87,WNW,302,1.0,4.0,36,0.00,,,0.00,Wunderground v.1.13,2013-06-20 18:25:00,
2013-06-20 11:30:00,78.6,47.1,29.86,West,270,1.0,5.0,33,0.00,,,-99.99,WeatherLink 5.7,2013-06-20 18:30:00,
2013-06-20 11:35:00,75.4,46.6,29.87,WNW,288,1.0,1.0,36,0.00,,,0.00,Wunderground v.1.13,2013-06-20 18:35:00,
2013-06-20 11:40:00,76.0,46.4,29.87,WNW,298,1.0,1.0,35,0.00,,,0.00,Wunderground v.1.13,2013-06-20 18:40:00,
2013-06-20 11:45:00,76.5,46.8,29.87,NW,326,1.0,9.0,35,0.00,,,0.00,Wunderground v.1.13,2013-06-20 18:45:00,
2013-06-20 11:55:00,76.8,46.3,29.87,ENE,69,1.0,9.0,34,0.00,,,0.00,Wunderground v.1.13,2013-06-20 18:55:00,
2013-06-20 12:00:00,77.0,47.2,29.86,NE,55,0.0,9.0,35,0.00,,,0.00,Wunderground v.1.13,2013-06-20 19:00:00,
2013-06-20 12:05:00,77.6,47.0,29.86,NW,322,1.0,3.0,34,0.00,,,0.00,Wunderground v.1.13,2013-06-20 19:05:00,
2013-06-20 12:10:00,77.6,47.8,29.86,NE,55,1.0,1.0,35,0.00,,,0.00,Wunderground v.1.13,2013-06-20 19:10:00,
2013-06-20 12:15:00,80.3,45.1,29.86,ESE,112,1.0,6.0,29,0.00,,,-99.99,WeatherLink 5.7,2013-06-20 19:15:00,
2013-06-20 12:20:00,78.1,48.2,29.86,NNE,25,0.0,3.0,35,0.00,,,0.00,Wunderground v.1.13,2013-06-20 19:20:00,
2013-06-20 12:30:00,78.6,47.9,29.86,ENE,73,1.0,3.0,34,0.00,,,0.00,Wunderground v.1.13,2013-06-20 19:30:00,
2013-06-20 12:35:00,78.8,48.1,29.86,WNW,289,1.0,5.0,34,0.00,,,0.00,Wunderground v.1.13,2013-06-20 19:35:00,
2013-06-20 12:45:00,79.0,45.8,29.86,SE,133,1.0,5.0,31,0.00,,,0.00,Wunderground v.1.13,2013-06-20 19:45:00,
2013-06-20 12:55:00,79.2,45.9,29.86,East,80,1.0,1.0,31,0.00,,,0.00,Wunderground v.1.13,2013-06-20 19:55:00,
2013-06-20 13:00:00,79.4,47.0,29.86,SE,130,1.0,1.0,32,0.00,,,0.00,Wunderground v.1.13,2013-06-20 20:00:00,
2013-06-20 13:10:00,79.8,48.1,29.86,SE,134,0.0,6.0,33,0.00,,,0.00,Wunderground v.1.13,2013-06-20 20:10:00,
2013-06-20 13:15:00,79.9,43.9,29.85,ENE,67,1.0,6.0,28,0.00,,,-99.99,WeatherLink 5.7,2013-06-20 20:15:00,
2013-06-20 13:20:00,80.5,44.4,29.86,NNW,328,1.0,1.0,28,0.00,,,0.00,Wunderground v.1.13,2013-06-20 20:20:00,
2013-06-20 13:30:00,80.9,45.7,29.86,West,273,0.0,6.0,29,0.00,,,0.00,Wunderground v.1.13,2013-06-20 20:30:00,
2013-06-20 13:40:00,80.1,44.0,29.86,NNW,345,2.0,2.0,28,0.00,,,0.00,Wunderground v.1.13,2013-06-20 20:40:00,
2013-06-20 13:45:00,79.8,42.8,29.86,NNW,330,1.0,5.0,27,0.00,,,0.00,Wunderground v.1.13,2013-06-20 20:45:00,
2013-06-20 13:55:00,80.1,45.0,29.86,North,355,1.0,5.0,29,0.00,,,0.00,Wunderground v.1.13,2013-06-20 20:55:00,
2013-06-20 14:00:00,80.5,44.4,29.86,NW,315,2.0,9.0,28,0.00,,,-99.99,WeatherLink 5.7,2013-06-20 21:00:00,
2013-06-20 14:05:00,80.5,44.4,29.85,NW,304,1.0,6.0,28,0.00,,,0.00,Wunderground v.1.13,2013-06-20 21:05:00,
2013-06-20 14:10:00,80.3,43.3,29.85,NE,55,1.0,1.0,27,0.00,,,0.00,Wunderground v.1.13,2013-06-20 21:10:00,
2013-06-20 14:15:00,79.9,42.9,29.85,WSW,253,1.0,6.0,27,0.00,,,0.00,Wunderground v.1.13,2013-06-20 21:15:00,
2013-06-20 14:25:00,79.9,43.9,29.85,ESE,105,2.0,2.0,28,0.00,,,0.00,Wunderground v.1.13,2013-06-20 21:25:00,
2013-06-20 14:30:00,81.1,41.9,29.85,WNW,292,2.0,7.0,25,0.00,,,-99.99,WeatherLink 5.7,2013-06-20 21:30:00,
2013-06-20 14:35:00,80.7,44.6,29.85,ESE,122,1.0,7.0,28,0.00,,,0.00,Wunderground v.1.13,2013-06-20 21:35:00,
2013-06-20 14:40:00,81.1,43.9,29.85,NW,319,1.0,7.0,27,0.00,,,0.00,Wunderground v.1.13,2013-06-20 21:40:00,
2013-06-20 14:45:00,81.4,43.2,29.85,NW,315,1.0,11.0,26,0.00,,,-99.99,WeatherLink 5.7,2013-06-20 21:45:00,
2013-06-20 14:50:00,80.7,44.6,29.85,NW,304,2.0,2.0,28,0.00,,,0.00,Wunderground v.1.13,2013-06-20 21:50:00,
2013-06-20 15:00:00,80.5,44.4,29.86,NW,319,2.0,7.0,28,0.00,,,0.00,Wunderground v.1.13,2013-06-20 22:00:00,
2013-06-20 15:05:00,80.5,43.4,29.86,East,100,1.0,9.0,27,0.00,,,0.00,Wunderground v.1.13,2013-06-20 22:05:00,
2013-06-20 15:15:00,80.7,43.6,29.85,WNW,299,1.0,1.0,27,0.00,,,0.00,Wunderground v.1.13,2013-06-20 22:15:00,
2013-06-20 15:25:00,81.1,41.9,29.85,WNW,298,2.0,9.0,25,0.00,,,0.00,Wunderground v.1.13,2013-06-20 22:25:00,
2013-06-20 15:30:00,81.1,41.9,29.85,NW,319,2.0,2.0,25,0.00,,,0.00,Wunderground v.1.13,2013-06-20 22:30:00,
2013-06-20 15:40:00,81.6,42.4,29.85,NNW,340,2.0,2.0,25,0.00,,,0.00,Wunderground v.1.13,2013-06-20 22:40:00,
2013-06-20 15:45:00,80.7,43.6,29.85,ESE,112,1.0,3.0,27,0.00,,,-99.99,WeatherLink 5.7,2013-06-20 22:45:00,
2013-06-20 15:50:00,81.4,43.2,29.85,East,95,1.0,7.0,26,0.00,,,0.00,Wunderground v.1.13,2013-06-20 22:50:00,
2013-06-20 16:00:00,81.4,42.2,29.85,East,82,1.0,7.0,25,0.00,,,0.00,Wunderground v.1.13,2013-06-20 23:00:00,
2013-06-20 16:10:00,80.9,43.8,29.85,ENE,59,1.0,1.0,27,0.00,,,0.00,Wunderground v.1.13,2013-06-20 23:10:00,
2013-06-20 16:15:00,80.7,43.6,29.86,NW,315,1.0,5.0,27,0.00,,,-99.99,WeatherLink 5.7,2013-06-20 23:15:00,
2013-06-20 16:20:00,80.7,43.6,29.85,East,87,1.0,9.0,27,0.00,,,0.00,Wunderground v.1.13,2013-06-20 23:20:00,
2013-06-20 16:25:00,80.9,43.8,29.85,East,87,0.0,9.0,27,0.00,,,0.00,Wunderground v.1.13,2013-06-20 23:25:00,
2013-06-20 16:30:00,80.1,37.8,29.86,NW,315,1.0,5.0,22,0.00,,,-99.99,WeatherLink 5.7,2013-06-20 23:30:00,
2013-06-20 16:35:00,80.9,42.8,29.85,ESE,103,1.0,3.0,26,0.00,,,0.00,Wunderground v.1.13,2013-06-20 23:35:00,
2013-06-20 16:40:00,80.7,42.6,29.85,NE,40,1.0,1.0,26,0.00,,,0.00,Wunderground v.1.13,2013-06-20 23:40:00,
2013-06-20 16:45:00,80.7,43.6,29.85,NNW,346,1.0,1.0,27,0.00,,,0.00,Wunderground v.1.13,2013-06-20 23:45:00,
2013-06-20 16:55:00,80.7,42.6,29.85,NW,325,1.0,1.0,26,0.00,,,0.00,Wunderground v.1.13,2013-06-20 23:55:00,
2013-06-20 17:00:00,80.7,44.6,29.85,NW,317,1.0,3.0,28,0.00,,,0.00,Wunderground v.1.13,2013-06-21 00:00:00,
2013-06-20 17:05:00,80.9,44.7,29.85,East,86,1.0,6.0,28,0.00,,,0.00,Wunderground v.1.13,2013-06-21 00:05:00,
2013-06-20 17:15:00,80.9,43.8,29.86,ESE,105,2.0,2.0,27,0.00,,,0.00,Wunderground v.1.13,2013-06-21 00:15:00,
2013-06-20 17:20:00,80.3,43.3,29.86,NW,316,2.0,6.0,27,0.00,,,0.00,Wunderground v.1.13,2013-06-21 00:20:00,
2013-06-20 17:30:00,80.1,38.9,29.86,WNW,298,1.0,6.0,23,0.00,,,0.00,Wunderground v.1.13,2013-06-21 00:30:00,
2013-06-20 17:35:00,80.1,37.8,29.86,WNW,302,1.0,1.0,22,0.00,,,0.00,Wunderground v.1.13,2013-06-21 00:35:00,
2013-06-20 17:45:00,79.4,39.4,29.85,East,96,2.0,2.0,24,0.00,,,0.00,Wunderground v.1.13,2013-06-21 00:45:00,
2013-06-20 17:55:00,79.4,40.5,29.85,NE,54,2.0,2.0,25,0.00,,,0.00,Wunderground v.1.13,2013-06-21 00:55:00,
2013-06-20 18:00:00,77.4,40.8,29.86,WNW,292,2.0,7.0,27,0.00,,,-99.99,WeatherLink 5.7,2013-06-21 01:00:00,
2013-06-20 18:05:00,79.8,40.8,29.85,NE,40,1.0,1.0,25,0.00,,,0.00,Wunderground v.1.13,2013-06-21 01:05:00,
2013-06-20 18:10:00,79.2,41.3,29.85,ENE,70,1.0,7.0,26,0.00,,,0.00,Wunderground v.1.13,2013-06-21 01:10:00,
2013-06-20 18:15:00,77.0,40.4,29.86,WNW,292,1.0,7.0,27,0.00,,,-99.99,WeatherLink 5.7,2013-06-21 01:15:00,
2013-06-20 18:20:00,78.3,40.6,29.85,NNW,337,1.0,7.0,26,0.00,,,0.00,Wunderground v.1.13,2013-06-21 01:20:00,
2013-06-20 18:30:00,78.6,41.8,29.86,North,355,1.0,1.0,27,0.00,,,0.00,Wunderground v.1.13,2013-06-21 01:30:00,
2013-06-20 18:40:00,78.6,39.8,29.86,NW,305,1.0,1.0,25,0.00,,,0.00,Wunderground v.1.13,2013-06-21 01:40:00,
2013-06-20 18:45:00,72.0,47.0,29.86,NNE,22,0.0,3.0,41,0.00,,,-99.99,WeatherLink 5.7,2013-06-21 01:45:00,
2013-06-20 18:50:00,78.8,40.0,29.86,NW,317,1.0,6.0,25,0.00,,,0.00,Wunderground v.1.13,2013-06-21 01:50:00,
2013-06-20 18:55:00,78.3,40.6,29.86,West,260,2.0,7.0,26,0.00,,,0.00,Wunderground v.1.13,2013-06-21 01:55:00,
2013-06-20 19:00:00,70.1,47.2,29.86,WNW,292,0.0,3.0,44,0.00,,,-99.99,WeatherLink 5.7,2013-06-21 02:00:00,
2013-06-20 19:05:00,77.2,41.6,29.86,NW,315,2.0,7.0,28,0.00,,,0.00,Wunderground v.1.13,2013-06-21 02:05:00,
2013-06-20 19:15:00,77.0,40.4,29.86,NW,304,1.0,7.0,27,0.00,,,0.00,Wunderground v.1.13,2013-06-21 02:15:00,
2013-06-20 19:20:00,76.5,41.9,29.86,NW,314,1.0,1.0,29,0.00,,,0.00,Wunderground v.1.13,2013-06-21 02:20:00,
2013-06-20 19:30:00,75.4,45.1,29.86,NW,314,0.0,7.0,34,0.00,,,0.00,Wunderground v.1.13,2013-06-21 02:30:00,
2013-06-20 19:40:00,73.0,46.6,29.86,NNE,27,0.0,4.0,39,0.00,,,0.00,Wunderground v.1.13,2013-06-21 02:40:00,
2013-06-20 19:45:00,65.3,47.7,29.87,North,0,0.0,3.0,53,0.00,,,-99.99,WeatherLink 5.7,2013-06-21 02:45:00,
2013-06-20 19:50:00,71.3,47.0,29.86,East,86,0.0,4.0,42,0.00,,,0.00,Wunderground v.1.13,2013-06-21 02:50:00,
2013-06-20 20:00:00,70.3,47.3,29.86,NW,320,0.0,4.0,44,0.00,,,0.00,Wunderground v.1.13,2013-06-21 03:00:00,
2013-06-20 20:05:00,69.4,47.1,29.86,SE,146,0.0,3.0,45,0.00,,,0.00,Wunderground v.1.13,2013-06-21 03:05:00,
2013-06-20 20:15:00,67.9,46.9,29.86,North,360,1.0,1.0,47,0.00,,,0.00,Wunderground v.1.13,2013-06-21 03:15:00,
2013-06-20 20:25:00,66.8,47.6,29.86,ENE,65,0.0,3.0,50,0.00,,,0.00,Wunderground v.1.13,2013-06-21 03:25:00,
2013-06-20 20:30:00,62.6,47.6,29.88,NW,315,0.0,3.0,58,0.00,,,-99.99,WeatherLink 5.7,2013-06-21 03:30:00,
2013-06-20 20:35:00,65.8,47.7,29.87,ENE,67,0.0,3.0,52,0.00,,,0.00,Wunderground v.1.13,2013-06-21 03:35:00,
2013-06-20 20:40:00,65.6,48.0,29.87,NE,38,0.0,3.0,53,0.00,,,0.00,Wunderground v.1.13,2013-06-21 03:40:00,
2013-06-20 20:45:00,62.0,47.0,29.89,NW,315,0.0,2.0,58,0.00,,,-99.99,WeatherLink 5.7,2013-06-21 03:45:00,
2013-06-20 20:50:00,65.0,47.9,29.87,NW,304,0.0,3.0,54,0.00,,,0.00,Wunderground v.1.13,2013-06-21 03:50:00,
2013-06-20 20:55:00,64.7,47.7,29.87,NNW,329,0.0,3.0,54,0.00,,,0.00,Wunderground v.1.13,2013-06-21 03:55:00,
2013-06-20 21:00:00,61.6,47.1,29.89,NW,315,0.0,2.0,59,0.00,,,-99.99,WeatherLink 5.7,2013-06-21 04:00:00,
2013-06-20 21:05:00,64.0,47.5,29.88,NNW,329,0.0,4.0,55,0.00,,,0.00,Wunderground v.1.13,2013-06-21 04:05:00,
2013-06-20 21:10:00,63.7,47.7,29.88,NNW,329,0.0,4.0,56,0.00,,,0.00,Wunderground v.1.13,2013-06-21 04:10:00,
2013-06-20 21:15:00,61.0,47.0,29.89,NW,315,0.0,1.0,60,0.00,,,-99.99,WeatherLink 5.7,2013-06-21 04:15:00,
2013-06-20 21:20:00,63.1,48.1,29.88,NNW,329,0.0,4.0,58,0.00,,,0.00,Wunderground v.1.13,2013-06-21 04:20:00,
2013-06-20 21:30:00,62.6,47.6,29.88,NW,325,0.0,4.0,58,0.00,,,0.00,Wunderground v.1.13,2013-06-21 04:30:00,
2013-06-20 21:35:00,62.3,47.3,29.88,NW,324,0.0,3.0,58,0.00,,,0.00,Wunderground v.1.13,2013-06-21 04:35:00,
2013-06-20 21:40:00,62.1,47.1,29.88,NW,324,0.0,3.0,58,0.00,,,0.00,Wunderground v.1.13,2013-06-21 04:40:00,
2013-06-20 21:45:00,62.0,47.0,29.89,NW,324,0.0,3.0,58,0.00,,,0.00,Wunderground v.1.13,2013-06-21 04:45:00,
2013-06-20 21:55:00,61.8,47.3,29.89,NW,324,0.0,3.0,59,0.00,,,0.00,Wunderground v.1.13,2013-06-21 04:55:00,
2013-06-20 22:00:00,59.3,47.1,29.89,NW,315,0.0,1.0,64,0.00,,,-99.99,WeatherLink 5.7,2013-06-21 05:00:00,
2013-06-20 22:05:00,61.5,47.0,29.89,NW,324,0.0,2.0,59,0.00,,,0.00,Wunderground v.1.13,2013-06-21 05:05:00,
2013-06-20 22:10:00,61.3,46.8,29.89,NW,324,0.0,2.0,59,0.00,,,0.00,Wunderground v.1.13,2013-06-21 05:10:00,
2013-06-20 22:15:00,58.7,47.0,29.89,NW,315,0.0,1.0,65,0.00,,,-99.99,WeatherLink 5.7,2013-06-21 05:15:00,
2013-06-20 22:20:00,60.9,47.4,29.89,NW,324,0.0,2.0,61,0.00,,,0.00,Wunderground v.1.13,2013-06-21 05:20:00,
2013-06-20 22:30:00,60.2,47.1,29.89,NW,324,0.0,2.0,62,0.00,,,0.00,Wunderground v.1.13,2013-06-21 05:30:00,
2013-06-20 22:40:00,59.9,47.3,29.89,NW,324,0.0,2.0,63,0.00,,,0.00,Wunderground v.1.13,2013-06-21 05:40:00,
2013-06-20 22:45:00,59.8,47.2,29.89,NW,324,0.0,2.0,63,0.00,,,0.00,Wunderground v.1.13,2013-06-21 05:45:00,
2013-06-20 22:55:00,59.5,47.3,29.89,NW,324,0.0,2.0,64,0.00,,,0.00,Wunderground v.1.13,2013-06-21 05:55:00,
2013-06-20 23:00:00,57.5,48.2,29.88,NW,315,0.0,3.0,71,0.00,,,-99.99,WeatherLink 5.7,2013-06-21 06:00:00,
2013-06-20 23:05:00,59.2,47.4,29.89,NW,324,0.0,1.0,65,0.00,,,0.00,Wunderground v.1.13,2013-06-21 06:05:00,
2013-06-20 23:10:00,58.9,47.2,29.89,NW,324,0.0,1.0,65,0.00,,,0.00,Wunderground v.1.13,2013-06-21 06:10:00,
2013-06-20 23:15:00,57.3,48.0,29.88,WNW,292,0.0,3.0,71,0.00,,,-99.99,WeatherLink 5.7,2013-06-21 06:15:00,
2013-06-20 23:20:00,58.6,47.3,29.89,NW,324,0.0,1.0,66,0.00,,,0.00,Wunderground v.1.13,2013-06-21 06:20:00,
2013-06-20 23:30:00,58.3,47.4,29.89,NW,324,0.0,1.0,67,0.00,,,0.00,Wunderground v.1.13,2013-06-21 06:30:00,
2013-06-20 23:35:00,58.1,47.6,29.89,NW,324,0.0,1.0,68,0.00,,,0.00,Wunderground v.1.13,2013-06-21 06:35:00,
2013-06-20 23:40:00,58.0,47.9,29.89,NW,324,0.0,1.0,69,0.00,,,0.00,Wunderground v.1.13,2013-06-21 06:40:00,
2013-06-20 23:45:00,56.9,48.3,29.88,WNW,292,0.0,2.0,73,0.00,,,-99.99,WeatherLink 5.7,2013-06-21 06:45:00,
2013-06-20 23:50:00,57.8,48.1,29.89,NW,323,1.0,1.0,70,0.00,,,0.00,Wunderground v.1.13,2013-06-21 06:50:00,
2013-06-20 23:55:00,57.6,48.3,29.89,WNW,294,0.0,1.0,71,0.00,,,0.00,Wunderground v.1.13,2013-06-21 06:55:00,